GFSMW_con_mlcape_021.txt.gz
CAPE
955 1028 1073 1151 1173 1137 1091 961 1056 1326 1595 1355 1213 1377 1441 1774 1867 1833 1374 1465 1129 1058 1083 1057 1027 1110 829 447 359 214 144 93 339 83 0 41 181 149 272 350 19 20 50
908 1007 1001 968 1083 1074 1000 1032 1040 1211 1404 1624 1536 1494 1686 1741 1809 1852 1871 1882 1871 1710 1407 1346 1101 842 526 398 140 102 0 47 315 7 10 0 69 164 195 64 0 0 1
656 612 676 799 809 927 1042 1055 1101 1111 1250 1510 1708 1548 1468 1411 1454 1641 1742 1691 1721 1752 1649 1231 914 745 472 76 28 49 79 0 45 35 20 0 0 0 54 156 0 0 0
340 369 340 508 644 744 975 1030 1121 1148 1282 1584 1489 1390 1316 1432 1578 1438 1389 1790 1787 1601 1446 1037 824 478 103 3 39 18 0 0 0 28 63 30 1 0 0 0 0 0 0
139 143 168 266 377 527 757 870 1044 1047 1294 1527 1431 1406 1409 1628 1727 969 622 791 1046 1459 1504 1109 398 25 6 77 0 0 0 3 0 7 2 19 1 0 0 0 0 0 0
152 145 128 158 294 398 521 780 914 857 1153 1384 1376 1325 1385 1652 1285 799 384 436 371 262 201 161 35 57 76 16 0 0 0 2 7 0 0 0 0 0 0 0 0 0 0
133 151 200 200 298 378 457 573 749 746 1010 1201 1315 1400 1467 1704 1423 1050 400 231 147 54 0 33 69 80 29 0 0 0 0 0 0 0 0 0 0 0 0 0 0 0 0
139 169 244 278 345 397 509 557 597 677 864 902 1097 1497 1650 1711 1371 1193 467 210 99 28 63 87 160 117 0 0 0 0 0 0 0 0 0 2 1 0 1 6 1 0 0
224 194 274 354 434 513 538 638 684 725 805 915 1069 1269 1517 1578 1276 989 461 208 24 13 15 48 66 35 0 0 1 0 7 0 36 34 46 23 21 21 5 1 2 2 0
233 328 417 483 546 621 675 737 782 768 863 967 1144 1341 1418 1336 1373 623 179 3 16 22 49 41 76 16 0 4 1 0 0 0 17 44 35 36 0 21 30 14 44 16 0
123 281 548 648 646 687 791 859 885 930 1015 1004 1105 1252 1223 1062 496 416 9 0 0 0 53 29 9 42 41 40 15 0 8 0 27 62 37 58 97 39 51 64 77 51 28
35 242 602 767 755 820 834 888 1001 1036 1079 1181 1216 1075 763 344 594 159 7 0 0 0 0 1 21 62 66 44 44 29 11 11 23 0 39 59 87 108 19 35 37 73 79
33 183 528 738 836 909 976 998 1112 1175 1300 1383 1263 947 231 395 295 0 0 0 2 17 5 4 27 36 75 70 71 20 10 30 12 22 52 73 75 40 20 47 51 48 65
68 142 339 684 905 1054 1102 1152 1214 1348 1471 1556 1263 697 209 351 213 0 0 0 0 0 0 0 0 10 32 75 70 36 30 39 69 49 131 150 49 44 22 63 39 50 39
79 126 173 394 804 1052 1170 1290 1392 1521 1535 1769 1327 851 329 247 99 0 0 0 0 0 0 0 0 3 34 48 10 37 85 244 179 194 203 123 69 14 3 23 32 67 55
86 116 193 353 556 819 932 1266 1481 1655 1766 1607 1322 817 388 360 174 1 0 0 0 0 0 0 1 28 23 18 0 37 224 410 226 138 218 153 18 1 0 0 0 1 27
98 163 243 363 484 617 827 928 1235 1674 1727 1507 1232 599 520 514 278 1 0 0 0 0 0 0 4 73 81 37 24 32 214 510 430 270 208 62 67 4 0 0 0 0 0
189 241 230 341 452 533 659 890 1248 1534 1462 1351 1000 674 561 487 274 14 0 0 0 0 0 0 37 166 189 64 69 83 212 313 378 291 190 112 52 5 0 0 0 0 3
86 142 148 203 201 361 661 938 1222 1426 1469 1227 937 801 653 527 239 27 0 0 0 12 6 27 110 134 248 90 32 22 31 59 77 120 73 11 0 0 0 0 0 0 0
102 177 212 296 393 382 739 716 851 1027 1018 1153 977 845 686 526 284 87 14 11 2 1 110 80 87 44 156 68 16 0 7 23 15 0 0 0 0 0 0 0 0 0 0
138 242 381 355 394 453 393 362 516 542 876 1139 998 802 641 435 294 169 111 102 93 135 139 53 93 100 154 31 7 0 0 16 12 0 10 0 0 0 0 0 0 0 0
364 370 241 283 472 588 684 485 563 1155 1169 928 880 799 680 428 326 265 285 298 308 285 206 185 89 179 149 29 4 1 4 0 2 22 14 0 0 0 0 0 0 0 0
198 265 174 269 533 657 647 492 392 638 705 932 878 735 603 489 387 345 458 448 368 454 256 65 103 95 9 9 1 0 0 0 0 0 0 0 0 0 0 0 0 0 0
261 394 236 195 377 577 541 644 573 779 799 824 796 735 716 675 621 596 544 431 271 243 107 5 9 7 9 7 0 0 0 0 0 0 0 0 0 0 0 0 0 0 0
343 326 418 491 499 574 678 624 467 389 614 667 638 597 394 233 0 0 0 0 0 0 3 24 37 60 108 22 0 0 0 0 0 0 0 0 0 0 0 0 0 0 0
430 487 494 506 449 448 467 392 267 359 421 342 225 169 59 0 0 0 0 0 0 0 0 0 57 0 2 0 0 0 0 0 0 0 0 0 0 0 0 0 0 0 0

GFSMW_con_mlcape_024.txt.gz
CAPE
587 808 959 989 1083 1195 1226 1281 1274 1414 1873 1814 1604 1462 1482 1482 1802 1848 1968 1701 1638 1314 1513 1129 1145 934 1188 857 770 126 0 0 1 0 0 2 38 78 205 350 147 207 365
604 783 947 963 1093 1264 1356 1487 1500 1715 2091 1875 1753 1488 1474 1515 1524 1769 1971 2100 2054 1826 1418 1399 1371 1300 502 1026 541 2 0 0 6 0 0 0 31 58 128 83 1 0 24
445 634 812 958 1026 1245 1487 1579 1815 1788 2162 1946 1946 2076 2039 2045 1888 1683 1727 1669 2045 2005 1926 1595 1374 1527 836 96 53 0 0 0 0 14 0 1 4 0 60 124 1 0 0
656 615 663 823 1018 1106 1458 1684 1955 2153 2121 2317 1838 1849 1579 1165 840 980 815 917 1664 1806 1849 1856 1605 1600 341 10 0 2 0 3 0 1 0 26 39 9 18 11 0 0 0
131 231 381 429 719 961 1150 1549 1957 2302 2254 2277 2230 1943 1989 1263 1332 1364 1560 1286 1509 1844 1418 1894 1522 1151 9 46 68 12 0 0 0 4 3 0 1 0 0 0 8 0 0
54 51 66 125 386 640 838 1170 1858 2349 2438 2293 2492 2351 1927 1788 1268 1717 1542 661 469 1096 1693 1598 1336 412 4 213 70 1 0 10 7 7 5 5 2 6 5 4 8 8 1
15 39 50 42 95 342 675 990 1755 2298 2390 2221 2223 2481 2404 2260 2199 2248 1754 378 176 195 779 1052 614 345 434 318 53 3 0 2 2 5 7 12 14 16 15 2 0 2 1
213 89 185 239 304 476 827 1092 1579 2131 2280 2058 2219 2437 2539 2310 2282 2356 1606 687 62 104 375 565 468 437 405 260 51 0 5 13 8 9 7 0 5 11 15 21 14 3 0
354 340 357 487 542 772 1133 1426 1677 2048 2144 1959 2291 2376 2527 2399 1979 2065 2307 1105 540 144 278 430 421 431 381 142 53 5 24 12 5 8 12 12 4 13 19 23 21 19 11
268 379 477 547 738 891 1137 1490 1835 1853 1952 1867 2026 2050 2279 2433 2338 2366 2155 1151 657 213 179 281 301 309 272 110 175 14 10 21 0 10 16 49 13 19 32 37 32 32 27
136 362 511 589 861 983 1117 1496 1768 1935 1981 1938 1952 2019 2020 2237 2486 2179 1913 1205 511 208 158 194 206 287 171 179 216 92 0 24 54 34 19 45 106 46 40 58 45 46 28
54 174 527 686 797 1108 1172 1371 1602 1824 1983 2044 2277 2129 2069 2200 2243 2007 1272 641 125 12 10 77 12 85 201 254 186 114 2 44 58 44 52 72 88 79 132 39 31 29 51
159 174 459 763 934 1176 1428 1380 1608 1698 1842 2015 2146 2168 2168 2091 1683 1191 782 163 0 0 0 0 0 20 233 265 218 209 138 78 52 52 93 110 98 95 73 52 18 36 43
359 445 534 807 1136 1311 1718 1782 1640 1690 1788 1922 2073 2255 2302 1876 1467 1370 461 12 0 0 0 0 0 10 203 173 122 240 179 115 106 160 198 206 146 110 74 76 15 36 69
566 566 730 1015 1392 1566 1801 1951 1844 1840 1786 1951 2058 2252 2360 1649 1280 1612 583 20 0 0 0 0 0 139 151 25 125 159 180 177 276 312 274 291 254 157 79 37 3 66 15
659 768 900 1153 1574 1791 2031 2079 2004 1947 1963 2080 2260 2404 2227 1367 1499 1297 607 130 2 0 20 0 4 71 1 0 11 161 105 167 408 379 373 389 358 119 44 2 0 0 0
348 662 920 1083 1625 1861 2100 2129 2149 2108 2220 2349 2577 2480 2197 1635 1389 1291 867 442 34 1 162 112 139 79 42 10 9 22 58 119 466 596 650 270 204 106 181 120 7 0 0
97 669 1006 1218 1619 1702 1933 1957 2116 2316 2468 2605 2633 2476 2207 1653 1518 1380 1008 511 77 16 98 170 246 289 142 184 52 19 58 110 310 151 84 57 97 195 156 106 64 44 39
240 574 997 1198 1534 1441 1671 1844 1992 2301 2526 2552 2503 2344 1858 1743 1638 1455 1143 621 333 112 160 218 314 408 407 225 103 54 112 144 62 32 18 19 44 41 3 12 11 9 1
392 837 816 949 1327 1394 1588 1884 2118 2363 2308 2251 2270 2050 1838 1805 1725 1267 1146 816 579 333 367 401 607 330 523 86 45 96 235 117 36 7 6 0 2 0 0 0 0 1 0
738 877 915 1081 1319 1480 1833 2037 2074 2101 2183 2179 2101 2023 1855 1608 1408 1305 937 739 615 467 546 577 543 503 528 561 22 20 130 86 44 12 0 17 0 0 0 0 0 0 0
1020 1306 1526 1540 1312 1813 2071 2092 2067 2246 2283 2159 1927 1723 1662 1446 1166 992 702 503 383 335 436 649 537 476 733 365 0 3 0 109 72 72 168 108 0 0 0 0 0 0 0
1009 1218 1402 1553 1762 1938 1942 1526 1420 1764 1648 1731 1747 1417 1115 1135 992 775 702 535 479 489 595 691 622 555 537 178 1 1 0 4 102 83 2 0 0 0 0 0 0 0 0
736 880 1083 1297 1413 1546 1733 1363 1532 1711 1488 1621 1459 1118 978 825 725 772 728 692 618 601 608 648 550 260 129 29 4 1 0 0 0 0 0 0 0 0 0 0 0 0 1
1131 1324 1416 1247 1449 1669 1471 1538 1343 1485 1443 1337 1201 940 762 589 352 5 65 343 12 159 550 145 71 93 98 104 3 1 45 28 19 16 4 0 0 2 5 12 10 1 0
1005 956 1153 1289 1171 1404 1164 985 1377 1206 1218 1141 1041 864 736 620 537 89 0 0 0 0 0 0 119 0 3 0 0 0 0 0 0 0 0 7 20 19 21 13 2 0 0

GFSMW_con_mlcape_030.txt.gz
CAPE
74 181 283 397 445 681 1040 1101 1296 1242 2243 2106 1748 1328 1569 1351 1522 1082 2027 1819 1652 1812 1491 1525 1346 1308 1178 711 684 236 0 0 4 0 0 32 7 5 73 26 7 28 206
45 188 383 412 416 682 951 1471 1374 1980 1549 1658 1413 1176 1322 1584 1741 1679 1679 1438 1885 1747 1416 1497 1496 1092 977 772 484 57 2 0 6 0 0 12 33 11 22 11 0 0 3
0 242 426 459 424 817 1158 1340 1543 2049 1570 1868 1216 1578 1902 2004 1756 1903 1500 2132 1905 1678 1897 1650 1311 1405 1045 1118 318 35 0 0 1 0 0 35 59 47 61 23 0 0 0
2 33 325 657 536 833 1399 1576 1774 1850 2229 1486 2201 1634 1241 1739 842 430 634 1218 1560 1009 1330 1272 1563 1179 926 412 34 59 0 0 0 0 0 0 0 40 36 37 8 0 0
35 13 202 509 626 858 1340 1893 2052 2148 2455 1683 2233 2114 1543 685 1328 803 1136 940 989 654 1808 1282 961 1175 763 106 0 21 0 0 0 0 5 1 0 0 0 3 19 25 0
128 44 66 462 722 797 1261 1706 2304 2350 2542 2679 1885 2163 1876 1254 1130 1005 1620 1199 1192 865 1129 731 1109 948 601 274 30 29 16 0 0 0 0 0 4 11 12 0 4 7 16
212 199 99 278 853 907 958 1682 2614 2654 2674 2915 2917 1852 2291 2176 1041 1712 1914 1185 609 939 801 1122 1524 1190 646 330 239 127 164 95 25 114 0 0 2 0 0 0 0 0 2
328 385 364 252 785 955 1065 1335 2366 2885 3056 2797 3257 3011 2092 2786 2577 1826 2050 1204 1118 608 1108 1036 1524 1380 760 502 196 208 42 99 81 15 16 0 0 0 0 0 0 0 0
337 324 623 661 587 1025 1120 1245 2231 2786 3187 3404 3300 3403 3282 2441 2681 2319 1726 2071 1052 1295 1116 1168 1610 1265 940 492 399 189 114 164 198 87 52 21 1 0 1 4 3 7 0
259 347 331 655 627 843 1221 1367 1643 2830 3342 3523 3558 3360 3590 3412 2801 2423 2178 1531 1927 1135 1322 1190 1280 1032 910 645 524 160 238 199 139 103 26 110 16 7 7 2 20 17 16
255 405 370 419 525 589 1001 1319 1583 2496 3304 3654 3611 3554 3512 3785 3160 2734 2287 2624 1743 1419 1376 1159 1001 1226 1130 787 546 297 227 160 82 46 27 61 15 0 0 54 9 16 22
0 37 420 527 630 527 715 1119 1497 1624 2924 3506 3489 3597 3738 3729 3590 2545 3044 2955 2338 2091 1225 1092 1166 980 1054 759 694 100 102 362 298 208 166 40 151 60 68 21 27 8 15
8 33 266 610 775 678 596 779 1157 1477 2194 3191 3366 3544 3639 3583 3414 3308 2528 3046 2855 2576 1386 1109 964 1009 814 560 609 434 148 262 36 155 224 130 129 129 45 97 68 69 67
23 55 26 360 799 954 896 895 1089 1517 1833 2782 3086 3273 3612 3494 3362 3384 3296 3080 3332 3003 1847 1408 1110 938 702 659 673 661 563 263 224 289 218 281 217 117 115 64 56 109 87
4 7 82 277 411 1389 1387 1291 1290 1403 1721 2350 2840 3194 3665 3592 3578 3420 3486 3326 3366 3135 2242 1531 1219 980 533 613 494 654 612 405 296 261 275 216 397 279 241 132 172 60 16
6 100 213 540 474 1619 1919 1607 1595 1566 1577 1881 2567 2935 3369 3792 3795 3664 3536 3425 3300 2955 2195 1496 1052 787 450 376 212 585 506 551 544 302 533 393 371 204 66 39 22 11 3
0 32 576 895 1118 1847 2229 2073 1912 2121 1652 2003 2319 2738 3266 3786 3843 3827 3598 3508 3276 2725 1958 1336 881 515 468 135 69 460 474 361 526 656 601 685 654 543 181 30 5 17 6
2 5 0 894 1449 1727 2051 2823 2449 2475 2327 2439 2772 3065 3572 3972 4031 3893 3692 3400 3185 2436 1701 1085 729 487 601 470 119 126 147 320 527 609 638 637 808 580 338 92 22 8 32
17 97 22 31 1091 1525 1861 2423 3071 2704 2827 2822 3519 3627 3873 4264 4097 3813 3521 3089 3061 2201 1713 1040 689 650 811 446 246 2 3 0 15 310 488 719 1035 913 198 43 19 11 2
0 0 15 18 162 1292 2136 2604 2803 3222 2973 3457 3466 3936 4303 4163 3919 3559 3151 3058 3044 2223 1503 1014 814 754 774 604 324 54 58 50 120 449 416 361 698 536 98 32 10 11 20
0 0 5 224 588 1558 2205 2940 3106 3367 3383 3706 3916 4059 4033 3994 3736 3018 2518 2468 2502 2214 1628 1104 817 761 706 721 439 198 432 517 513 307 455 781 376 158 59 0 5 23 38
468 310 399 511 2519 2259 2617 3407 3554 3699 3692 3597 3911 3824 3758 3211 2985 2523 2046 2113 2013 1734 1371 1034 796 741 656 585 516 325 219 388 463 472 461 517 341 64 7 0 0 0 0
1344 1341 1013 2490 3300 3506 3503 3555 3860 3683 3641 3575 3550 3214 2835 2675 2384 2085 2025 1539 1310 1123 990 847 760 662 879 930 599 231 25 46 211 65 13 5 12 12 3 0 0 0 0
2179 2186 2638 3138 3635 3692 3739 3971 3701 3394 3213 3186 3070 2931 2481 2116 1825 1600 1371 1074 922 905 1028 1040 1098 1017 904 652 151 27 0 0 0 0 1 0 0 0 0 0 0 0 0
2762 2815 3112 3273 3682 3848 3721 3632 3388 3258 3096 2989 2434 2041 1711 1409 608 186 332 888 383 586 882 1002 1127 1035 843 714 144 8 0 0 0 20 40 0 0 0 1 1 4 8 9
2589 2775 2913 2949 3130 3032 2779 2467 2909 3060 2589 2071 1759 1460 1158 737 404 382 157 0 0 0 4 200 414 0 83 0 0 0 0 0 0 0 214 192 170 155 89 48 31 31 20

GFSMW_con_mlcape_033.txt.gz
CAPE
44 117 126 388 500 635 764 619 845 1400 1314 1331 1157 1281 1476 1049 1081 1340 1551 1334 1303 1386 1321 1276 1245 1248 1208 646 468 24 0 0 0 0 0 0 0 0 33 19 14 30 412
13 116 127 197 377 491 764 677 773 1294 1436 1315 1251 1192 1174 1114 728 815 1446 1526 1333 1084 1045 946 960 1012 814 539 117 0 0 0 0 0 0 0 1 14 17 5 0 0 163
30 63 119 197 277 423 698 810 860 1143 1483 1605 1422 1122 985 875 1117 1395 1412 1458 1309 1288 1627 1151 926 891 842 501 67 0 0 0 0 0 0 0 8 30 26 2 0 0 0
24 56 204 244 325 491 742 853 968 1156 1414 1567 1295 908 808 1547 1476 1529 1495 1525 1365 1468 1369 1337 886 1066 517 492 1 0 0 0 0 0 0 0 0 11 25 2 0 0 0
0 50 170 247 373 502 720 1039 996 1313 1231 1261 1292 817 785 1097 1284 990 1063 1351 1516 1204 1126 1203 1209 870 607 150 0 0 0 16 17 1 42 0 0 0 0 7 13 9 0
0 7 102 322 304 599 890 1151 1066 1153 1391 1126 1081 1693 1468 985 514 614 942 1187 944 850 1051 981 987 761 194 8 10 17 0 16 22 9 0 0 0 0 0 0 0 0 1
0 0 67 320 426 518 1131 1269 1212 1161 1504 1371 1064 1334 1961 1422 717 1262 837 626 501 403 1058 789 778 640 192 50 32 11 0 0 15 14 0 0 0 0 0 0 0 0 0
1 0 0 170 517 545 1020 1560 1529 1370 1593 1630 1268 1018 1650 2218 1383 1186 1685 940 775 449 675 696 710 721 354 119 116 50 8 38 0 20 0 0 0 0 0 0 0 0 0
112 24 22 62 477 564 1032 1440 1846 1688 1819 1860 1707 1327 1120 1433 2225 2051 1223 1629 863 685 505 973 1042 862 558 273 167 62 0 9 5 0 8 0 0 0 0 0 0 0 0
10 89 37 46 454 632 778 1368 2113 2027 2012 1974 2170 2024 1668 1616 1772 2343 2147 1210 1618 1158 800 875 1060 933 746 326 174 132 39 59 85 35 0 0 9 9 0 0 0 0 0
3 87 266 162 365 735 881 1035 2019 2270 2382 2262 2202 2376 2452 2139 2026 1900 2294 1662 1424 1455 1117 1013 1000 918 734 335 347 171 86 153 16 38 9 46 30 0 0 2 0 0 0
40 11 265 444 325 758 978 1119 1994 2246 2545 2596 2600 2480 2613 2968 2564 2230 2038 1999 1654 1497 1247 929 954 816 671 495 433 248 185 28 153 66 28 0 0 0 0 0 0 5 0
4 22 150 533 711 819 1097 1201 1752 2190 2394 2745 2878 2911 2811 2818 3030 2698 2575 2151 2009 1662 1404 1080 786 729 617 433 465 298 157 140 215 106 11 1 0 0 48 55 45 55 47
0 28 253 288 659 684 1069 1213 1427 2094 2457 2788 2913 2913 2962 2955 2960 3324 2825 2678 2523 2158 1706 1344 1015 803 775 573 626 464 273 52 250 285 236 117 15 1 47 3 11 18 25
39 17 285 413 564 568 715 1064 1392 1470 2326 2544 2850 2857 3016 3143 3259 3269 3284 2596 2812 2600 2014 1499 1181 988 854 711 598 472 345 148 93 273 144 175 123 175 165 53 16 21 21
41 78 196 588 625 616 594 803 1122 1425 1435 2314 2533 2969 2915 3287 3355 3312 3254 3125 2595 2891 2571 1840 1437 1089 971 822 653 366 379 201 290 273 257 244 267 370 374 234 192 84 18
22 28 64 199 683 764 793 800 855 1095 1383 1409 2341 2763 2979 3115 3324 3370 3295 3305 3044 3077 2905 2291 1749 1382 1062 703 561 519 422 371 514 385 277 393 276 227 178 86 43 31 13
24 3 157 243 332 1004 1183 990 969 1073 1408 1670 1901 2548 2755 3144 3402 3491 3443 3398 3320 3168 2797 2301 1895 1429 993 482 266 335 503 527 492 510 526 436 353 330 110 90 42 37 11
1 39 329 427 563 1434 1662 1617 1308 1352 1271 1662 1989 2496 2754 3166 3446 3596 3617 3497 3364 3042 2566 2082 1594 1283 815 522 232 64 84 314 423 461 568 499 493 350 320 229 113 41 29
0 0 0 0 821 1063 2189 2083 1834 1839 1644 1600 2021 2340 2795 3252 3591 3708 3679 3412 3166 2838 2148 1800 1411 1010 804 507 356 163 227 169 116 88 210 55 370 238 173 89 51 67 47
0 0 0 0 109 790 1888 2346 2314 2064 2410 2388 2907 2909 3236 3638 3861 3720 3495 3309 2850 2522 2184 1712 1260 909 775 606 464 265 271 164 32 17 107 267 319 106 129 130 72 41 35
819 775 132 40 116 109 1497 1795 2417 2672 2757 3399 3513 3884 3935 3945 3651 3370 3090 2823 2545 2177 1765 1379 1013 802 742 692 474 393 373 349 408 532 446 309 240 136 54 33 44 2 1
1074 1348 1897 1696 1905 1553 1429 1683 2750 3470 3539 3693 3867 3959 3672 3362 3089 2798 2208 2040 2112 1853 1498 1264 980 828 756 723 532 335 214 146 428 386 128 27 8 18 6 5 10 0 0
2387 2519 2862 2537 3000 3587 3511 3550 3809 3739 3676 3695 3481 3044 2821 2514 2124 1618 1611 1611 1541 1428 1310 1157 922 748 681 651 396 287 32 0 0 0 0 0 0 0 0 0 0 0 0
3314 3496 3490 3762 3792 3824 3866 3770 3668 3567 3396 3056 2440 2054 1697 1254 900 660 977 1159 757 923 1084 909 919 848 824 672 339 54 0 0 0 0 0 0 0 0 0 0 0 0 0
2923 3370 3705 3735 3706 3611 3478 3295 3047 2757 2520 2029 1724 1251 878 754 648 501 126 0 19 60 301 619 625 137 457 183 30 0 0 0 0 0 1 0 0 0 0 0 0 8 15

GFSMW_con_mlcape_036.txt.gz
CAPE
120 54 430 464 307 198 460 629 714 606 392 513 394 380 312 406 1017 1023 761 981 1014 1243 1161 782 1101 1078 894 768 354 26 0 0 0 0 0 0 0 0 32 17 156 360 503
84 100 185 355 300 218 472 517 652 618 573 709 645 613 455 661 792 1012 1171 1182 1178 978 1251 767 873 751 1034 550 142 0 0 0 0 0 0 0 0 12 5 1 3 252 362
27 66 75 224 319 236 419 425 548 768 767 913 955 792 726 779 895 964 843 1080 1124 982 1106 804 712 772 532 415 60 0 0 0 0 0 0 0 0 7 3 0 8 56 8
10 21 82 163 279 301 389 400 562 900 922 1041 1026 837 771 672 594 656 937 1125 1245 1180 1044 1188 729 613 610 291 50 0 0 0 0 0 0 0 0 11 0 0 0 0 0
15 8 55 74 172 259 432 461 508 905 1003 1091 1045 891 756 522 617 987 1276 1207 1215 1203 1163 1000 727 665 554 267 13 0 0 0 0 8 0 0 0 0 0 5 0 0 0
0 0 21 36 49 222 424 543 576 785 976 1068 1069 968 860 559 522 1059 1135 1064 1241 1258 1145 1149 795 539 239 169 0 0 0 0 0 0 0 0 0 0 0 0 0 0 0
0 0 0 30 56 173 431 614 651 781 902 1051 1079 998 796 596 434 689 986 714 849 1072 825 1181 943 554 188 35 0 0 0 0 0 0 0 0 0 0 0 0 0 0 0
0 0 0 30 43 175 497 730 683 784 897 930 1062 1175 1006 717 634 827 618 696 694 936 766 852 853 465 107 4 0 0 0 0 0 0 0 0 0 0 0 0 0 0 0
0 0 0 1 70 187 545 719 766 767 1029 982 861 921 1115 1298 1372 1184 979 832 606 430 591 654 706 438 171 100 21 0 0 0 0 0 0 0 0 0 0 0 0 0 0
0 0 0 5 132 176 540 755 848 799 949 1137 1096 1005 890 1080 1601 1563 1313 971 496 503 369 532 501 433 288 228 114 16 2 0 0 0 0 0 0 0 0 0 0 0 0
9 0 0 0 77 329 464 1008 978 983 1041 1235 1322 1272 1095 829 1276 1739 1901 1495 1155 865 485 604 541 466 389 335 213 82 2 0 0 17 0 0 0 0 0 0 0 0 0
29 27 42 53 29 257 444 962 1311 1216 1207 1390 1416 1485 1451 1276 835 1288 1688 1910 1718 1222 967 704 794 700 590 478 377 102 24 2 0 3 58 0 0 0 0 0 0 0 0
0 37 108 31 25 206 461 795 1341 1516 1538 1686 1638 1763 1847 1776 1502 1173 1209 1449 1682 1542 1172 1067 993 837 734 628 482 130 42 1 1 16 28 28 1 0 0 0 0 0 10
25 1 25 101 160 290 512 601 1082 1799 1857 2001 1938 1848 1977 2099 2007 1907 1612 1491 1622 1721 1401 1237 1223 1033 789 691 512 258 121 79 63 5 60 83 31 0 0 1 3 24 28
9 13 0 0 132 328 612 731 837 1673 2080 2272 2241 2121 2144 2298 2361 2385 2278 2002 1780 1790 1613 1439 1183 998 838 734 572 420 170 115 73 95 119 240 104 26 8 3 27 17 21
0 0 0 0 96 307 692 808 925 1548 1995 2294 2392 2523 2542 2562 2520 2597 2694 2439 2184 2160 1807 1512 1295 1089 954 801 635 537 351 251 154 61 56 181 276 248 135 27 81 94 42
0 22 3 3 215 422 723 887 1029 1292 2050 2130 2434 2646 2757 2725 2726 2727 2842 2743 2455 2495 2164 1753 1520 1448 1322 1007 809 717 602 476 380 219 76 24 297 296 296 204 261 171 46
4 15 126 219 319 438 550 910 1105 1306 1635 2320 2403 2745 2810 2757 2863 2941 2879 2880 2706 2534 2421 2073 1829 1736 1646 1234 943 795 837 618 448 241 145 138 363 314 292 153 173 153 50
0 0 48 387 563 569 446 620 855 1201 1544 1766 2247 2422 2728 2688 2950 2923 2946 2944 2985 2701 2630 2278 2065 2061 1932 1453 1084 901 851 637 535 334 374 598 526 414 181 130 93 64 8
0 0 17 318 211 224 475 684 656 906 1171 1486 1561 2235 2644 2724 2856 2965 3016 3065 3064 2816 2572 2393 2301 2205 2188 1617 1061 552 417 424 420 420 448 542 618 426 231 276 214 41 19
0 0 0 10 246 583 1315 982 875 870 941 1196 1451 1592 2358 2563 2823 3067 3137 3125 3017 2666 2561 2458 1957 1552 1559 1248 790 281 315 165 62 179 272 317 80 22 36 120 107 70 51
16 0 0 0 0 222 852 1282 1219 1230 1234 1155 1367 1761 2140 2496 2836 3151 3217 3015 2910 2618 2326 1593 1100 913 972 667 332 188 316 224 285 366 324 188 142 173 108 41 46 23 14
668 886 101 0 0 3 996 1033 998 1415 1686 1628 1654 1911 2304 2717 3228 3257 3041 2899 2536 2285 1662 1430 1242 1067 859 559 304 247 271 261 452 376 317 141 18 0 0 0 0 13 0
1138 1551 1651 1103 865 1171 638 945 1553 1890 2076 2123 2678 2872 2947 3106 3150 3032 2714 2438 1882 1364 1098 1143 1279 1034 640 485 177 101 12 18 55 10 0 0 0 0 0 0 0 0 0
2590 2588 2459 2302 1927 2307 2209 2151 2293 2716 3063 3161 3155 3014 2521 2408 1552 993 1179 1541 830 821 592 1287 908 720 719 555 298 28 18 10 3 0 0 0 0 0 0 0 0 0 0
2783 3092 3358 3483 3287 3237 3163 3128 3119 3003 2761 2536 2232 1664 1266 361 361 23 33 3 95 481 648 820 589 203 425 270 85 0 0 0 0 0 0 0 0 0 0 0 0 0 0